Flag for Pakistan Weather past 2 weeks in Islamabad, Pakistan

Now
93 °F

Scattered clouds.


Feels Like: 103 °F
Forecast: 63 / 94 °F
Wind: 14 mph from Southeast

Location: Islamabad Airport

Current Time: Sep 17, 2014 at 3:41:37 PM

Latest Report: Sep 17, 2014 at 3:00 PM


Visibility: 2 mi

Pressure: 29.65 "Hg

Humidity: 53%

Dew point: 73 °F

Location of IslamabadLocation

Historic Weather in Islamabad — Graph

°F

Islamabad temperature yesterday

Maximum temperature yesterday: 91 °F (at 3:00 PM)
Minimum temperature yesterday: 72 °F (at 4:00 AM)
Average temperature yesterday: 81 °F

Past Weeks' High & Low Weather Summary

 TemperatureHumidityPressure
High93 °F (Sep 9, 3:00 PM)100% (Sep 4, 5:00 PM)29.86 "Hg (Sep 4, 5:00 PM)
Low66 °F (Sep 14, 8:00 AM)41% (Sep 15, 3:00 PM)29.56 "Hg (Sep 6, 3:00 AM)
Average79 °F74%29.74 "Hg
* Reported Sep 2 3:00 PM — Sep 17 3:00 PM, Islamabad, Weather by CustomWeather, © 2014

Note: Actual official high and low records may vary slightly from our data, if they occured in-between our weather recording intervals... More about our weather records

Advertising

Islamabad weather history for previous 24 hours

 ConditionsComfort  
Time TempWeatherWind HumidityBarometerVisibility
3:00 PM
Sep 17
93 °FScattered clouds.14 mph53%29.65 "Hg2 mi
2:00 PM91 °FScattered clouds.9 mph56%29.68 "Hg2 mi
12:55 PM91 °FScattered clouds.9 mph59%29.68 "Hg2 mi
11:55 AM88 °FScattered clouds.7 mph62%29.71 "Hg2 mi
10:55 AM84 °FScattered clouds.9 mph66%29.74 "Hg2 mi
9:55 AM82 °FScattered clouds.9 mph70%29.74 "Hg2 mi
8:55 AM81 °FScattered clouds.7 mph70%29.74 "Hg2 mi
7:55 AM77 °FScattered clouds.5 mph79%29.74 "Hg2 mi
6:55 AM75 °FMild.N/A83%29.71 "HgN/A
6:00 AM73 °FFog.No wind89%29.68 "Hg2 mi
4:55 AM73 °FClear.No wind89%29.68 "Hg4 mi
4:00 AM73 °FClear.7 mph89%29.65 "Hg4 mi
3:00 AM77 °FClear.No wind83%29.65 "Hg4 mi
2:00 AM77 °FClear.No wind83%29.68 "Hg4 mi
1:00 AM77 °FClear.No wind89%29.68 "Hg4 mi
12:00 AM79 °FClear.5 mph84%29.68 "Hg4 mi
11:00 PM
Sep 16
79 °FClear.5 mph84%29.68 "Hg4 mi
10:00 PM79 °FClear.5 mph84%29.71 "Hg4 mi
9:00 PM81 °FPassing clouds.5 mph79%29.71 "Hg4 mi
7:00 PM86 °FPassing clouds.5 mph66%29.68 "Hg4 mi
6:00 PM88 °FPassing clouds.7 mph62%29.68 "Hg4 mi
5:00 PM90 °FPassing clouds.7 mph52%29.68 "Hg4 mi
4:00 PM91 °FPassing clouds.7 mph52%29.68 "Hg4 mi
3:00 PM91 °FPassing clouds.9 mph52%29.68 "Hg4 mi
Weather by CustomWeather, © 2014

See weather overviewHow to use our weather pages